Location: Marne
(34.0056°N, 117.9064°W)
Time: 18:04:05
(UTC+00:00)

ISS - Pass Details

Date: 18 January 2020
Orbit: 415 x 422 km, 51.6° (Epoch: 24 February)

Event Time Altitude Azimuth Distance (km) Brightness Sun altitude
Rises 03:18:07 0° 230° (SW) 2,363 0.9 -26.8°
Reaches altitude 10° 03:20:13 10° 232° (SW) 1,501 -0.2 -27.2°
Enters shadow 03:21:26 21° 235° (SW) 1,019 -1.2 -27.5°
